Regional Weather Roundup
Issued by NWS Green Bay, WI

Home | Current Version | Previous Version | Text Only | Print | Product List | Glossary On
Versions: 1 2 3 4 5 6 7 8 9 10 11 12 13 14 15 16 17 18 19 20 21 22 23 24 25 26 27 28 29 30 31 32 33 34 35 36 37 38 39 40 41 42 43 44 45 46 47 48 49 50
000
ASUS43 KGRB 280510
RWRGRB

NORTH-CENTRAL AND NORTHEAST WISCONSIN REGIONAL WEATHER ROUNDUP
NATIONAL WEATHER SERVICE GREEN BAY WI
1200 AM CDT SAT MAR 28 2015

WIZ005-009-010>012-018-019-280600-
NORTH CENTRAL WISCONSIN

CITY           SKY/WX    TMP DP  RH WIND       PRES   REMARKS
IRONWOOD       CLEAR     10   7  85 CALM      30.16R
MANITOWISH WTR CLEAR     13   6  73 CALM      30.16R
ARBOR VITAE    CLEAR     17   7  65 CALM      30.15S
EAGLE RIVER    CLEAR      9   2  75 CALM      30.15S
LAND O LAKES   CLEAR      3   0  85 CALM      30.17R
RHINELANDER    CLEAR     11   1  64 N5        30.16R WCI   3
PHILLIPS       PTCLDY    19   8  62 CALM      30.16R
ANTIGO         CLEAR     17   6  62 SE5       30.17R WCI  10
TOMAHAWK       CLEAR     10   6  81 CALM      30.17R
MERRILL        CLEAR     13   9  81 CALM      30.17S
$$

WIZ013-073-280600-
NORTHEAST WISCONSIN

CITY           SKY/WX    TMP DP  RH WIND       PRES   REMARKS
IRON MOUNTAIN  CLEAR     10  -2  58 CALM      30.19R
MARINETTE      CLEAR     18   7  62 CALM      30.24R
OCONTO         CLEAR     19   4  51 CALM      30.25R
$$

WIZ017-030-035>037-045-280600-
CENTRAL WISCONSIN

CITY           SKY/WX    TMP DP  RH WIND       PRES   REMARKS
MEDFORD        CLEAR     17  11  78 CALM      30.16R
WAUSAU         CLEAR     20   9  62 CALM      30.16S
MOSINEE        CLEAR     21  10  63 CALM      30.18R
MARSHFIELD     CLEAR     20  12  71 W3        30.17R
WISC RAPIDS    CLEAR     17   9  70 CALM      30.20R
STEVENS POINT  CLEAR     13   7  76 CALM      30.19R
WAUPACA        CLEAR     23  11  61 CALM      30.22R
SHAWANO        CLEAR     19  12  75 CALM      30.23R
CLINTONVILLE   CLEAR     21  12  68 E3        30.22R
$$

WIZ038-039-048-051-280600-
FOX VALLEY

CITY           SKY/WX    TMP DP  RH WIND       PRES   REMARKS
NWS GREEN BAY  CLEAR     21  13  71 E3        30.23S
APPLETON         N/A     21  10  63 E3        30.22R
OSHKOSH        CLEAR     19  12  74 S3        30.22R
FOND DU LAC      N/A     18  11  74 SW3       30.22R
$$

WIZ022-050-052-280600-
EAST CENTRAL WISCONSIN

CITY           SKY/WX    TMP DP  RH WIND       PRES   REMARKS
STURGEON BAY   CLEAR     18   5  57 N5        30.25R
MANITOWOC      CLEAR     18  15  88 CALM      30.24R
SHEBOYGAN      CLEAR     17  12  80 CALM      30.22S
$$

LMZ563-521-522-541>543-280600-
LAKESHORE

STATION/POSITION TIME  TEMP    WIND        PRES    VSBY  WAVE
                       AIR SEA DIR/SP/G                  HT/PER
                 (UTC) (F)     (DEG/KT/KT) (MB)    (MI)  (FT/S)
SHEBOYGAN LKSHOR 0500   25      30/  9/ 10 1024.9R
KEWAUNEE LKSHORE 0500   25      40/  8/ 10 1022.8R
NORTHPORT PIER   0500   18     360/  6/  9 1024.4R
SISTER BAY LKSHO 0400   16        CALM       N/A
CHAMBERS ISLAND  0500   18      40/  8/ 10 1024.4S
MENOMINEE LKSHOR 0500   19      40/  5     1024.8R
$$


USA.gov is the U.S. government's official web portal to all federal, state and local government web resources and services.